Weather History for EGLF - January, 2013

Change the Weather History Date:

Tuesday, January 22, 2013

  Actual Average (EGLL) Record (EGLL)
Temperature  
Mean Temperature 28 °F -  
Max Temperature 35 °F 45 °F 53 °F (2012)
Min Temperature 20 °F 35 °F 23 °F (2013)
Degree Days  
Heating Degree Days 38    
Moisture  
Dew Point 30 °F    
Average Humidity 95    
Maximum Humidity 100    
Minimum Humidity 81    
Precipitation  
Precipitation 0.02 in - - ()
Sea Level Pressure  
Sea Level Pressure 29.55 in    
Wind  
Wind Speed 9 mph ()    
Max Wind Speed 75 mph    
Max Gust Speed -    
Visibility 2.9 miles    
Events Rain , Snow    
Averages and records for this station are not official NWS values.
T = Trace of Precipitation, MM = Missing Value Source: Averaged Metar Reports

Daily Weather History Graph

Daily Weather History Graph

Search for Another Location

Airport or City:

Trip Planner

Search our weather history database for the weather conditions in past years. The results will help you decide how hot, cold, wet, or windy it might be!

Date:

Astronomy

Jan. 22, 2013 Rise Set
Actual Time 7:53 AM GMT 4:36 PM GMT
Civil Twilight 7:16 AM GMT 5:13 PM GMT
Nautical Twilight 6:35 AM GMT 5:54 PM GMT
Astronomical Twilight 5:56 AM GMT 6:33 PM GMT
Moon 12:43 PM GMT (1/22) 4:06 AM GMT (1/22)
Length of Visible Light 9h 56m
Length of Day
8h 42m
Waxing Gibbous, 81% of the Moon is Illuminated
Jan 22
Waxing Gibbous
Jan 27
Full
Feb 3
Last Quarter
Feb 10
New
Feb 17
First Quarter

Hourly Weather History & Observations

Time (GMT) Temp. Windchill Dew Point Humidity Pressure Visibility Wind Dir Wind Speed Gust Speed Precip Events Conditions
2:50 AM 22 °F - 20 °F 91% 29.53 in 3 mi North 1.2 mph - -  
5:50 AM 20 °F - 18 °F 87% 29.54 in 1 mi SE 1.2 mph - -   Scattered Clouds
6:50 AM 24.8 °F 19.1 °F 24.8 °F 100% 29.50 in 5.0 mi East 4.6 mph - N/A   Mostly Cloudy
7:50 AM 26.6 °F 21.2 °F 26.6 °F 100% 29.50 in 3.7 mi East 4.6 mph - N/A   Mostly Cloudy
8:20 AM 26.6 °F 19.1 °F 26.6 °F 100% 29.53 in 3.1 mi ENE 6.9 mph - N/A   Mostly Cloudy
8:50 AM 28 °F - 26 °F 89% 29.55 in 3 mi East 6.9 mph - -   Scattered Clouds
8:50 AM 26.6 °F 18.2 °F 26.6 °F 100% 29.53 in 3.1 mi East 8.1 mph - N/A   Mostly Cloudy
9:20 AM 28.4 °F 20.4 °F 28.4 °F 100% 29.53 in 2.5 mi East 8.1 mph - N/A   Mostly Cloudy
9:50 AM 28.4 °F 21.2 °F 28.4 °F 100% 29.53 in - ENE 6.9 mph - N/A   Mostly Cloudy
10:20 AM 30.2 °F 9.0 °F 30.2 °F 100% 29.53 in 2.5 mi East 74.8 mph - N/A   Mostly Cloudy
10:50 AM 30.2 °F 22.6 °F 30.2 °F 100% 29.53 in 2.5 mi ENE 8.1 mph - N/A   Overcast
11:20 AM 32.0 °F 24.8 °F 30.2 °F 93% 29.53 in - ENE 8.1 mph - N/A   Overcast
11:50 AM 33 °F - 32 °F 92% 29.55 in 3 mi East 11.5 mph - -   Overcast
11:50 AM 33.8 °F 25.8 °F 32.0 °F 93% 29.53 in 2.5 mi ENE 10.4 mph - N/A   Overcast
12:20 PM 33.8 °F 25.3 °F 32.0 °F 93% 29.53 in 3.1 mi ENE 11.5 mph - N/A   Overcast
12:50 PM 33.8 °F 25.8 °F 32.0 °F 93% 29.53 in 3.1 mi ENE 10.4 mph - N/A   Haze
1:20 PM 33.8 °F 26.4 °F 32.0 °F 93% 29.53 in 3.1 mi ENE 9.2 mph - N/A   Haze
1:50 PM 33.8 °F 26.4 °F 33.8 °F 100% 29.53 in 3.1 mi NE 9.2 mph - N/A   Haze
2:20 PM 33.8 °F 27.0 °F 33.8 °F 100% 29.53 in 3.1 mi ENE 8.1 mph - N/A   Haze
2:50 PM 35 °F - 32 °F 85% 29.54 in 4 mi ENE 11.5 mph - -   Partly Cloudy
2:50 PM 35.6 °F 27.1 °F 33.8 °F 93% 29.53 in 4.3 mi ENE 12.7 mph - N/A   Overcast
3:20 PM 33.8 °F 24.3 °F 32.0 °F 93% 29.53 in 4.3 mi ENE 13.8 mph - N/A   Overcast
3:50 PM 33.8 °F 24.8 °F 32.0 °F 93% 29.53 in 5.0 mi ENE 12.7 mph - N/A   Drizzle
4:20 PM 33.8 °F 24.8 °F 30.2 °F 87% 29.53 in 5.0 mi ENE 12.7 mph - N/A   Overcast
4:50 PM - - - N/A% 29.56 in 3.1 mi ENE 13.8 mph - N/A Rain Rain
5:20 PM 33.8 °F 24.8 °F 32.0 °F 93% 29.56 in 1.2 mi ENE 12.7 mph - N/A Snow Snow
5:50 PM 33 °F - 31 °F 90% 29.59 in 1 mi ENE 11.5 mph - -   Mostly Cloudy
5:50 PM 32.0 °F 22.5 °F 32.0 °F 100% 29.56 in 1.2 mi ENE 12.7 mph - N/A Snow Snow
6:20 PM 32.0 °F 22.1 °F 32.0 °F 100% 29.56 in 0.9 mi ENE 13.8 mph - N/A Snow Snow
6:50 PM 32.0 °F 22.5 °F 32.0 °F 100% 29.59 in 0.7 mi ENE 12.7 mph - N/A Snow Heavy Snow
8:50 PM 33 °F - 31 °F 91% 29.63 in 4 mi East 12.7 mph - -   Overcast
11:50 PM 34 °F - 30 °F 81% 29.68 in 3 mi East 11.5 mph - -   Mostly Cloudy